Location: Unspecified
(0.0000°N, 0.0000°E)
Time: 12:22:35
(UTC+00:00)

STARLINK-1304 - Visible Passes

Search period start: 11 February 2026 00:00
Search period end: 21 February 2026 00:00
Orbit: 432 x 439 km, 53.1° (Epoch: 10 February)

Date Brightness Start Highest point End Pass type
(mag) Time Alt. Az. Time Alt. Az. Time Alt. Az.
13 Feb 5.4 19:43:08 10° NNW 19:44:01 17° NNW 19:44:01 17° NNW visible
14 Feb 4.1 19:00:49 10° N 19:03:46 27° NE 19:05:24 19° E visible
15 Feb 6.0 19:55:16 10° W 19:57:40 18° SW 20:00:05 10° S visible
16 Feb 4.9 19:11:29 10° WNW 19:14:38 34° SW 19:17:48 10° S visible
19 Feb 5.1 05:23:26 10° S 05:26:33 32° SE 05:29:39 10° ENE visible
19 Feb 6.6 18:40:23 10° WSW 18:41:32 11° SW 18:42:39 10° SW visible
20 Feb 6.1 04:40:48 10° SSE 04:43:03 16° SE 04:45:18 10° E visible
